Other Public Products
Issued by NWS Grand Forks, ND

Home | Current Version | Previous Version | Graphics & Text | Print | Product List | Glossary On
Versions: 1 2 3 4 5 6 7 8 9 10 11 12 13 14 15 16 17 18 19 20 21 22 23 24 25 26 27 28 29 30 31 32 33 34 35 36 37 38 39 40 41 42 43 44 45 46 47 48 49 50
000
FPUS83 KFGF 230710
OPUFGF
PRAIRIE TO PINES WEATHER ROUNDUP
NATIONAL WEATHER SERVICE EASTERN NORTH DAKOTA/GRAND FORKS ND
200 AM CDT WED JUL 23 2014

 **SATELLITE DATA USED TO AUGMENT SKY COVER AT AUTOMATED STATIONS**
 *****  WEATHER ACROSS EASTERN NORTH DAKOTA  *****

CITY           SKY/WX    TMP DP  RH WIND       PRES   REMARKS
GRAND FORKS    CLEAR     59  57  93 NW5       30.26R
GRAND FORKS AF MOCLDY    62  62  99 VRB5      30.27S
GRAND CITY NWS   N/A     61 N/A N/A N2          N/A
BUXTON         NOT AVBL
DEVILS LAKE    MOCLDY    64  57  77 E5        30.27S
FARGO          PTCLDY    60  57  89 NW3       30.26R
WAHPETON ARPT  MOSUNNY   61  54  77 N5        30.26R
$$

 *****  WEATHER ACROSS CENTRAL AND WESTERN NORTH DAKOTA  *****

CITY           SKY/WX    TMP DP  RH WIND       PRES   REMARKS
JAMESTOWN      PTCLDY    63  59  87 SE5       30.27F
BISMARCK       PTCLDY    66  62  87 E7        30.25F
MINOT          CLOUDY    67  60  78 CALM      30.25S
MINOT AFB      CLOUDY    67  62  81 E6        30.26R
GARRISON         N/A     69  64  84 E3        30.25F
WILLISTON      MOCLDY    69  63  81 E5        30.24S
DICKINSON      CLOUDY    63  59  87 SE7       30.24F
HETTINGER      MOCLDY    62  58  86 E3        30.26F
$$

 *****  OTHER OBSERVATIONS NORTHEAST NORTH DAKOTA  *****

CITY           SKY/WX    TMP DP  RH WIND       PRES   REMARKS
WALHALLA       PTSUNNY   57  57 100 NW5         N/A
LANGDON        FAIR      55  52  88 NE3       30.30S
CAVALIER       FAIR      59  55  88 N6        30.29R
GRAFTON        FAIR      59  57  94 N6        30.27R
CANDO          CLOUDY    63  57  82 E10       30.30S
FORT TOTTEN      N/A     65  59  81 SE5       29.95S
ROLLA          CLOUDY    57  57 100 CALM      30.33R
RUGBY          FAIR      63  63 100 E8        30.27S
 ***** THE ABOVE OBSERVATIONS ARE NON NWS ARE NOT QUALITY
        CONTROLLED AND MAY MIS-REPORT RAIN FOR SNOW...
$$

 *****  OTHER OBSERVATIONS SOUTHEAST NORTH DAKOTA *****

CITY           SKY/WX    TMP DP  RH WIND       PRES   REMARKS
COOPERSTOWN    NOT AVBL
VALLEY CITY    CLOUDY    63  63 100 CALM      30.27F
OAKES          NOT AVBL
GWINNER        SUNNY     63  61  94 CALM      30.28S
SHEYENNE NWR     N/A     58  56  92 CALM      29.95
BUFFALO        NOT AVBL
WYNDMERE       NOT AVBL
 ***** THE ABOVE OBSERVATIONS ARE NON NWS ARE NOT QUALITY
       CONTROLLED AND MAY MIS-REPORT RAIN FOR SNOW...
$$

  *****  WEATHER ACROSS NORTHERN MINNESOTA  *****

CITY           SKY/WX    TMP DP  RH WIND       PRES   REMARKS
FLAG ISLAND    CLEAR     64  57  77 N5        30.23R
WARROAD        NOT AVBL
ROSEAU         CLEAR     55  52  88 NW5       30.26R
HALLOCK        CLEAR     59  57  94 N5        30.27R
THF RVR FALLS  CLEAR     61  55  82 CALM      30.27R
HALSTAD          N/A     58  55  92 NW3         N/A
FOSSTON        CLEAR     55  54  94 CALM      30.27R
BAUDETTE       PTCLDY    60  56  86 NW3       30.24R
WASKISH        PTCLDY    63  55  77 NW6       30.24R
CROOKSTON      CLEAR     59  57  94 CALM      30.27S
$$
  *****  WEATHER ACROSS CENTRAL AND WEST MINNESOTA  *****

CITY           SKY/WX    TMP DP  RH WIND       PRES   REMARKS
BEMIDJI        CLEAR     53  51  94 NW6       30.25R
PARK RAPIDS    CLEAR     55  52  89 NW5       30.25S
WADENA         CLEAR     57  55  94 NW5       30.25S
DETROIT LAKES  CLEAR     61  55  82 NW3       30.28R
MOORHEAD       PTCLDY    61  61 100 CALM      30.27R
FERGUS FALLS   PTCLDY    61  54  77 N5        30.26S
ELBOW LAKE     FAIR      60  57  91 N3        30.25S
MORRIS MN      CLEAR     59  57  94 N6        30.24S
STAPLES        CLEAR     57  52  82 NW3       30.24S
WHEATON        CLEAR     59  55  88 NW3       30.27S
$$
  *****  WEATHER ELSEWHERE ACROSS MINNESOTA  *****

CITY           SKY/WX    TMP DP  RH WIND       PRES   REMARKS
DULUTH         PTCLDY    60  52  74 NW5       30.19R
INTRNTL FALLS  CLEAR     60  54  80 NE5       30.22R
ELY            PTCLDY    55  54  94 CALM      30.20S
CLOQUET        CLEAR     55  52  88 NW5       30.20R
BRAINERD       CLEAR     57  53  86 CALM      30.23R
HIBBING        CLEAR     52  50  93 CALM      30.20R
ALEXANDRIA     CLEAR     63  58  83 NW5       30.26S
SAINT CLOUD    CLEAR     62  55  77 NW3       30.21R
MINNEAPOLIS    CLEAR     69  56  62 N9        30.18R
$$

  *****  WEATHER ACROSS SOUTH DAKOTA  *****

CITY           SKY/WX    TMP DP  RH WIND       PRES   REMARKS
SIOUX FALLS    CLEAR     63  57  81 N5        30.25F
BROOKINGS      NOT AVBL
WATERTOWN      PTCLDY    61  56  83 CALM      30.28R
HURON          MOCLDY    64  58  80 E3        30.24R
SISSETON         N/A     59  58  96 NW6       30.26R
ABERDEEN       MOCLDY    62  59  90 E5        30.25F
MITCHELL       MOCLDY    64  61  90 E6        30.24R
PIERRE         PTCLDY    66  60  81 E9        30.21S
MOBRIDGE       PTCLDY    66  61  84 E7        30.23R
RAPID CITY     MOCLDY    67  63  87 SW7       30.26F
$$

  *****  SOME WEATHER IN NEARBY STATES *****

CITY           SKY/WX    TMP DP  RH WIND       PRES   REMARKS
GLASGOW MT     PTCLDY    66  56  70 E10       30.21F
GREAT FALLS MT PTCLDY    61  56  83 SW7       30.15F
CHEYENNE WY    CLEAR     69  58  67 S10       30.41R
SCOTTSBLUFF NE CLEAR     73  62  68 SE15      30.31R
OMAHA NE       PTCLDY    69  63  81 N7        30.19R
DES MOINES IA  CLEAR     74  61  63 N10       30.14R
DAVENPORT IA   CLEAR     70  67  90 N9        30.08R
CHICAGO IL     MOCLDY    69  59  70 N22G31    30.02S
EAU CLAIRE WI  CLEAR     61  59  93 N3        30.16R
LA CROSSE WI   CLEAR     70  59  68 NE6       30.14R
$$

  *****  SOME NATIONAL WEATHER *****

CITY           SKY/WX    TMP DP  RH WIND       PRES   REMARKS
LA GUARDIA NY  PTCLDY    76  62  62 S10       30.00F
RALEIGH NC     PTCLDY    72  69  90 CALM      30.07F
ATLANTA GA     PTCLDY    73  70  90 E7        30.09F
NEW ORLEANS LA CLOUDY    78  71  79 E5        30.02S
OKLAHOMA CITY  PTCLDY    76  73  91 S5        30.11S
ALBUQUERQUE NM MOCLDY    75  56  51 NE5       30.34R
SALT LAKE CITY PTCLDY    78  37  22 SE10      30.08S
LOS ANGELES CA CLEAR     69  61  75 W7        30.01R
BOISE ID       MOCLDY    75  52  44 N10       30.00S
SEATTLE WA     MOCLDY    67  56  67 NE5       30.03S
$$

*** WEATHER ACROSS MANITOBA...SASKATCHEWAN AND ONTARIO ***
                ***ONTARIO***

CITY           SKY/WX    TMP DP  RH WIND       PRES   REMARKS
GERALDTON      CLEAR     48  48 100 W2        30.14R
THUNDER BAY    CLOUDY    57  55  94 SW3       30.16R
SIOUX LOOKOUT  CLEAR     50  48  93 N2        30.23R
TORONTO        MOCLDY    75  68  78 SW16      29.87S
BIG TROUT LK   CLEAR     55  48  76 NW8       30.15S
PICKLE LAKE    NOT AVBL
DRYDEN         CLEAR     54  52  94 N3        30.24R
KENORA         MOCLDY    59  54  82 NE3       30.26R
$$
                *** MANITOBA***

CITY           SKY/WX    TMP DP  RH WIND       PRES   REMARKS
BRANDON        PTCLDY    55  52  88 NE6       30.34R
DAUPHIN        CLEAR     52  48  87 W6        30.32R
ISLAND LAKE    PTCLDY    61  50  67 W8        30.24S
PILOT MOUND      N/A     57  54  88 NE7         N/A
THE PAS        CLEAR     54  52  94 CALM      30.27R
THOMPSON       CLEAR     46  46 100 W5        30.23R
WINNIPEG       CLEAR     52  50  93 N8        30.30R
LYNN LAKE      CLEAR     52  46  82 W3        30.25R
CHURCHILL      CLOUDY    59  52  77 W8        30.02F
GILLAM         CLEAR     61  52  72 W8        30.14S
$$
                ***SASKATCHEWAN***

CITY           SKY/WX    TMP DP  RH WIND       PRES   REMARKS
ESTEVAN        CLOUDY    63  57  82 E8        30.28F
KINDERSLEY     MOCLDY    64  59  82 SE13      30.20R
LLOYDMINSTER   CLEAR     61  55  82 SE12      30.18S
PRINCE ALBERT  CLEAR     57  52  82 VRB2      30.26S
REGINA         MOCLDY    64  52  63 SE9       30.29S


USA.gov is the U.S. government's official web portal to all federal, state and local government web resources and services.